Tracking 31033 objects as of 15-Jul-2025
HD Live streaming from Space Station
objects crossing your sky now

SL-8 R/B

Track SL-8 R/B now!
10-day predictions
SL-8 R/B is classified as:


NORAD ID: 19257
Int'l Code: 1988-053B
Perigee: 756.3 km
Apogee: 783.3 km
Inclination: 74.0 °
Period: 100.1 minutes
Semi major axis: 7140 km
RCS: 4.3504 m2 (large)
Launch date: June 21, 1988
Source: Commonwealth of Independent States (former USSR) (CIS)
Launch site: PLESETSK MISSILE AND SPACE COMPLEX (PKMTR)

Note: This is a ROCKET BODY
Your satellite tracking list
Your tracking list is empty




NASA's NSSDC Master Catalog

Two Line Element Set (TLE):
1 19257U 88053B   25195.46919147  .00000050  00000-0  24869-4 0  9999
2 19257  74.0456 191.4877 0018930  69.7275  92.5225 14.38737337942338
Source of the keplerian elements: AFSPC